Palos Park, Illinois, United States (60464)
Lat: 41.67N, Lon: 87.83W
Wx Zone: ILZ014
Local Info
Past Weather Observations for Wednesday, September 21, 2016

NOTE: This archive is for the closest National Weather Service station to Palos Park. Information may differ from the station used for current weather conditions.

Click here for Long-term Archive

Time Weather Temperature Dewpoint Humidity Pressure Winds Precip Visibility
23:53
Overcast
70°F / 21°C 64°F / 18°C 83% 30.09 in
(1019 mb)
E 3.5 mph
(E 6 kph)
- 10SM
22:53
Overcast
72°F / 22°C 64°F / 18°C 78% 30.12 in
(1020 mb)
Calm - 10SM
21:53
Overcast
72°F / 22°C 64°F / 18°C 78% 30.09 in
(1019 mb)
Calm - 10SM
20:53
Overcast
72°F / 22°C 63°F / 17°C 73% 30.09 in
(1019 mb)
Calm - 10SM
19:53
Overcast
72°F / 22°C 63°F / 17°C 73% 30.12 in
(1020 mb)
Calm - 10SM
18:53
Mostly Cloudy
72°F / 22°C 63°F / 17°C 73% 30.12 in
(1020 mb)
NE 5.8 mph
(NE 9 kph)
- 10SM
17:53
Mostly Cloudy
73°F / 23°C 61°F / 16°C 65% 30.12 in
(1020 mb)
NE 15 mph
(NE 24 kph)
- 10SM
16:53
Overcast
75°F / 24°C 64°F / 18°C 69% 30.06 in
(1018 mb)
SW 9.2 mph
(SW 15 kph)
- 10SM
15:53
Overcast
73°F / 23°C 63°F / 17°C 69% 30.04 in
(1017 mb)
SW 16.1 mph
(SW 26 kph)
0.01 in
(0.25 mm)
10SM
15:25
Overcast
75°F / 24°C 61°F / 16°C 61% 30.06 in
(1018 mb)
W 6.9 mph
(W 11 kph)
0.01 in
(0.25 mm)
10SM
14:53
Overcast
Light Rain
73°F / 23°C 64°F / 18°C 74% 30.12 in
(1020 mb)
S 8.1 mph
(S 13 kph)
0.09 in
(2.29 mm)
10SM
13:53
Overcast
Light Rain
73°F / 23°C 64°F / 18°C 74% 30.21 in
(1023 mb)
SW 12.7 mph
(SW 20 kph)
0.00 in
(0.00 mm)
10SM
12:53
Overcast
75°F / 24°C 61°F / 16°C 61% 30.21 in
(1023 mb)
Calm - 10SM
11:53
Overcast
77°F / 25°C 64°F / 18°C 65% 30.24 in
(1024 mb)
N 6.9 mph
(N 11 kph)
- 10SM
10:53
Overcast
75°F / 24°C 64°F / 18°C 69% 30.24 in
(1024 mb)
N 10.4 mph
(N 17 kph)
- 10SM
09:53
Mostly Cloudy
73°F / 23°C 66°F / 19°C 78% 30.21 in
(1023 mb)
N 12.7 mph
(N 20 kph)
- 10SM
08:53
Mostly Cloudy
70°F / 21°C 64°F / 18°C 83% 30.12 in
(1020 mb)
SE 21.9 mph
(SE 35 kph)
0.04 in
(1.02 mm)
10SM
08:40
Overcast
Light Rain
70°F / 21°C 64°F / 18°C 83% 30.18 in
(1022 mb)
SE 18.4 mph
(SE 30 kph)
0.04 in
(1.02 mm)
10SM
07:53
Overcast
Thunder Storms
68°F / 20°C 64°F / 18°C 88% 30.24 in
(1024 mb)
ENE 11.5 mph
(ENE 19 kph)
0.10 in
(2.54 mm)
10SM
07:07
Overcast
Thunder Storms
72°F / 22°C 61°F / 16°C 69% 30.24 in
(1024 mb)
NE 18.4 mph
(NE 30 kph)
0.00 in
(0.00 mm)
7SM
06:53
Overcast
Thunder Storms
73°F / 23°C 61°F / 16°C 65% 30.24 in
(1024 mb)
N 16.1 mph
(N 26 kph)
- 10SM
06:50
Overcast
Cumulonimbus Clouds Observed
73°F / 23°C 61°F / 16°C 65% 30.24 in
(1024 mb)
N 16.1 mph
(N 26 kph)
- 10SM
05:53
Mostly Cloudy
72°F / 22°C 63°F / 17°C 73% 30.15 in
(1021 mb)
Variable 4.6 mph
(Variable 7 kph)
- 10SM
04:53
Mostly Cloudy
72°F / 22°C 63°F / 17°C 73% 30.12 in
(1020 mb)
S 5.8 mph
(S 9 kph)
- 10SM
03:53
Mostly Cloudy
72°F / 22°C 63°F / 17°C 73% 30.12 in
(1020 mb)
S 4.6 mph
(S 7 kph)
- 10SM
02:53
Partly Cloudy
72°F / 22°C 63°F / 17°C 73% 30.12 in
(1020 mb)
S 4.6 mph
(S 7 kph)
- 10SM
01:53
Partly Cloudy
72°F / 22°C 63°F / 17°C 73% 30.12 in
(1020 mb)
SSE 4.6 mph
(SSE 7 kph)
- 10SM
00:53
Clear
73°F / 23°C 63°F / 17°C 69% 30.12 in
(1020 mb)
SE 6.9 mph
(SE 11 kph)
- 10SM
Time Weather Temperature Dewpoint Humidity Pressure Winds Precip Visibility


Weather for websites

WeatherForYou.com, LLC is not responsible for any damages or problems caused by this service. Current weather conditions are obtained from the closest station including government and personal stations which may have varying degrees of accuracy. Weather forecasts are derived from the NOAA NDFD. Like all things, this site belongs to Jesus Christ... He just trusts us to maintain it. If you have any questions or comments email webmaster@weatherforyou.com

Copyright © 2016, WeatherForYou.com LLC. All rights reserved.